Wind_Speed
36 35 38 40 38 37 39 40 44 44 44 39 38 41 46 49 51 51 50 50 51 52 53 54 55 56 58 59 59 59 59 59 59 60 63 64 67 70 72 74 75 75 75 74
40 38 41 44 40 38 39 41 43 44 44 39 41 44 46 48 50 51 51 52 53 54 54 55 56 57 58 58 59 59 59 59 60 61 63 65 67 69 72 73 74 74 74 73
45 43 45 45 39 39 40 41 42 44 44 43 43 44 46 47 49 50 51 52 54 54 55 55 56 58 58 58 58 59 59 59 60 62 63 66 67 69 71 72 73 73 72 71
50 49 51 46 43 42 42 43 42 43 44 44 45 45 46 47 49 50 51 52 53 54 55 56 57 58 58 58 58 59 60 60 61 63 64 66 67 69 70 71 71 71 71 70
52 54 55 49 44 45 47 46 43 45 46 46 46 47 47 48 49 50 52 53 55 56 57 58 58 59 59 59 59 60 61 62 62 64 66 67 68 69 69 70 69 69 70 68
54 57 58 51 49 49 50 49 46 48 48 48 49 49 49 50 52 53 54 56 58 58 59 59 59 60 60 61 62 63 64 64 64 65 67 67 68 68 68 68 68 68 68 67
55 58 58 52 52 53 53 51 51 52 52 53 53 54 54 55 57 58 59 59 60 60 60 61 61 62 62 63 64 65 66 66 66 66 67 68 68 67 67 67 66 65 66 65
57 59 57 53 55 54 55 56 57 57 57 58 58 58 59 59 60 61 62 63 63 62 62 62 63 63 64 64 66 67 67 67 67 67 67 67 67 66 65 65 64 63 63 63
58 57 55 56 57 57 59 61 62 62 62 62 62 62 62 62 62 63 64 64 64 64 63 63 64 64 64 64 66 67 67 67 67 67 66 65 64 63 63 62 62 60 61 60
57 54 53 55 56 58 60 63 64 64 63 63 63 62 62 62 62 62 62 62 63 63 63 62 63 63 63 63 64 64 64 65 65 64 63 63 61 61 60 59 59 58 58 57
52 51 53 53 54 57 59 61 62 62 62 62 62 62 62 61 61 60 59 60 61 61 61 60 60 60 61 61 61 61 61 61 61 61 60 60 59 58 57 56 55 55 54 54
47 46 50 50 51 52 54 55 57 57 57 57 58 58 57 56 56 56 57 57 57 57 57 57 58 58 57 57 57 58 58 58 57 56 56 55 54 53 53 53 52 51 51 51
42 43 45 47 48 48 49 50 50 50 50 51 51 51 51 50 50 51 52 52 52 53 53 54 54 54 54 54 55 55 56 55 55 54 53 52 51 50 49 49 49 48 48 49
40 42 43 43 44 44 45 45 45 45 45 46 46 46 47 47 47 48 49 49 50 50 51 51 51 52 52 53 53 53 53 53 53 53 52 51 49 47 46 46 46 45 45 46
39 40 40 40 40 39 40 40 40 41 42 44 45 47 48 48 48 48 48 49 50 50 50 51 52 52 53 52 52 51 52 52 52 51 50 49 47 45 43 43 43 42 43 43
39 39 39 39 39 39 40 39 40 41 42 43 45 46 47 47 47 48 49 50 51 51 52 53 53 54 54 54 53 53 53 52 51 50 49 47 45 42 41 41 40 40 40 40
39 39 39 39 40 40 41 41 42 43 44 45 46 46 46 47 48 50 52 53 54 55 56 57 57 57 57 56 56 55 54 53 52 51 49 46 43 40 39 38 37 37 38 37
40 40 41 42 42 42 43 44 45 46 47 48 48 49 50 52 53 54 55 56 57 58 59 60 60 60 59 58 57 56 54 53 52 50 48 45 41 38 37 36 35 35 35 35
44 45 45 46 47 48 48 49 49 50 51 52 52 53 55 56 57 58 59 60 61 62 61 62 62 61 61 60 58 56 54 52 50 47 45 42 39 36 34 34 32 32 32 32
45 47 48 49 50 51 52 53 53 53 54 55 56 56 57 58 59 60 61 62 64 65 65 65 65 64 62 60 58 54 52 49 47 44 43 40 36 33 32 31 30 29 29 28
46 47 49 50 51 52 54 55 56 56 56 57 58 58 58 59 60 61 62 63 64 65 65 65 64 63 60 57 55 52 49 47 44 42 40 38 34 31 29 28 27 27 26 25
49 49 50 51 52 53 54 56 57 57 57 57 57 57 58 59 60 61 62 64 63 64 63 62 61 59 57 54 52 49 46 44 41 39 38 36 32 29 26 26 25 24 23 22
49 50 50 51 52 53 54 55 56 56 55 55 55 56 57 58 59 60 60 61 61 61 60 59 57 56 54 51 48 46 42 40 38 37 35 33 29 26 24 23 22 21 20 19
49 50 51 52 53 53 53 53 53 52 52 52 53 55 56 56 56 58 58 58 58 57 56 56 54 52 49 45 42 39 37 34 33 33 32 29 26 23 22 21 20 18 17 16
48 49 50 51 52 52 52 50 49 48 49 49 51 52 53 53 53 53 54 55 55 55 53 51 48 45 41 38 35 31 29 29 28 28 28 25 23 21 20 19 17 16 14 13
47 48 48 49 49 49 48 47 46 46 46 47 46 47 48 49 50 51 52 52 51 50 47 44 43 40 35 32 28 25 23 23 24 24 24 22 21 20 18 17 15 13 12 11
47 48 48 47 47 46 45 44 43 43 43 43 42 42 44 46 47 48 49 49 47 46 42 40 38 34 30 26 23 20 18 18 20 22 23 21 19 18 16 15 13 11 9 8
Wind_Direction
283 284 284 283 284 286 287 287 287 289 289 292 286 277 274 276 280 285 290 293 295 297 300 303 305 307 309 312 314 316 318 320 322 324 326 328 331 334 336 338 340 341 343 345
281 281 281 282 287 288 287 287 288 288 289 292 286 282 280 281 283 285 288 290 293 295 297 300 302 305 307 310 312 314 316 318 320 321 323 326 329 332 335 337 339 340 343 345
282 281 279 281 288 286 286 287 288 288 289 287 285 284 284 284 284 286 287 289 291 293 295 298 300 303 306 309 311 312 314 316 318 319 321 324 327 330 333 335 337 339 342 345
282 281 280 285 286 287 286 285 287 288 287 285 284 284 284 284 284 285 286 287 289 291 293 296 299 302 305 307 309 311 312 314 316 317 319 322 325 328 331 333 335 338 341 344
281 282 282 285 289 289 288 286 289 288 285 284 282 282 283 283 284 285 286 286 288 290 293 296 299 302 304 306 308 309 311 313 314 315 317 320 322 325 328 331 333 336 339 343
279 281 283 288 289 289 288 287 287 285 284 282 282 281 281 282 282 283 285 286 289 291 294 296 299 301 303 305 306 307 309 310 311 313 315 317 320 323 326 328 331 334 337 342
278 280 283 287 288 287 287 287 283 283 283 282 282 282 283 283 283 284 286 288 289 292 294 296 298 300 301 303 304 305 307 308 309 310 313 315 318 321 323 326 328 332 336 340
279 280 284 286 284 284 284 283 282 282 282 281 281 282 283 284 284 285 287 289 291 293 294 296 297 299 300 302 302 303 305 306 307 309 311 313 316 318 321 323 326 330 334 338
278 280 282 283 283 283 283 282 282 282 282 282 282 282 283 284 285 286 288 290 292 293 294 295 296 297 299 300 301 302 303 305 307 309 311 313 315 317 319 321 323 327 332 337
278 280 282 282 283 283 283 283 284 284 284 284 284 284 285 286 286 288 289 290 291 292 294 295 295 296 298 299 299 301 302 304 306 307 309 311 314 316 317 318 321 325 330 335
281 283 282 282 282 282 282 283 284 284 285 286 287 286 287 287 288 289 290 291 292 292 293 294 295 296 297 297 298 300 302 304 305 307 308 310 312 314 315 316 318 322 328 333
282 282 282 283 283 284 286 287 287 287 288 287 288 289 289 290 290 291 291 292 293 293 294 294 295 296 297 297 298 300 302 304 305 307 308 310 312 314 315 314 316 320 326 332
281 281 282 285 287 289 290 291 291 291 292 292 292 292 292 292 293 293 294 294 294 295 296 296 297 298 298 298 299 300 302 304 306 307 308 309 311 314 314 314 314 318 324 330
283 285 287 288 289 291 292 293 293 293 293 294 294 294 294 295 296 296 296 296 297 297 298 298 299 300 299 299 300 301 302 303 305 306 308 309 310 312 313 313 313 316 322 328
283 285 287 289 290 292 294 295 296 296 295 295 295 296 297 298 298 298 298 297 298 298 299 299 299 299 299 300 300 300 301 302 304 306 307 308 310 311 311 311 311 314 320 326
282 284 286 289 290 292 294 295 296 297 297 296 297 298 298 299 299 299 299 299 298 299 299 299 298 298 298 298 297 297 298 300 302 304 305 307 309 309 309 309 309 312 318 325
282 284 286 287 289 291 292 293 294 295 297 297 298 299 300 300 300 300 300 300 300 300 300 299 299 298 297 297 295 294 295 295 297 300 301 304 306 306 305 305 306 310 316 323
280 282 284 285 287 288 289 291 292 294 296 297 298 299 300 300 301 301 301 302 301 301 301 300 300 298 297 296 295 293 292 292 293 294 297 299 301 302 301 301 303 307 313 320
278 279 281 283 284 286 288 289 291 293 295 297 298 299 301 302 302 302 303 303 302 302 302 301 301 299 297 295 294 292 289 288 287 288 290 293 296 298 297 297 299 304 311 318
279 279 281 283 285 287 288 290 291 293 295 297 298 300 301 302 303 303 304 304 304 304 303 302 301 299 297 295 292 289 286 284 282 282 284 286 290 292 293 293 295 300 308 316
279 280 282 283 285 287 289 290 292 293 295 297 299 300 302 303 304 305 306 307 307 306 306 305 303 301 297 295 292 288 283 279 276 275 277 280 284 286 286 287 290 296 304 313
280 281 283 284 285 287 289 290 292 294 296 298 299 301 303 305 306 308 310 310 310 309 308 307 305 302 298 295 291 287 282 275 270 268 270 273 276 278 277 279 285 291 300 310
282 284 285 286 287 288 289 291 293 295 297 299 301 302 305 307 309 310 311 312 313 312 311 309 307 305 302 297 291 285 279 271 264 261 260 263 266 266 266 271 278 286 295 306
285 286 287 287 288 289 291 293 295 296 298 300 302 304 307 308 310 312 314 315 316 315 314 312 311 309 306 300 292 284 275 266 257 252 251 252 252 253 256 263 270 279 289 303
287 288 288 288 289 290 292 294 295 297 299 302 304 306 308 310 313 315 316 317 318 317 316 315 314 313 310 304 296 286 273 261 251 244 240 239 238 242 248 254 262 271 283 299
290 290 291 291 291 292 294 295 296 298 300 303 305 307 309 312 314 317 318 319 320 319 319 318 318 317 313 307 299 288 273 256 242 232 226 224 227 234 240 246 253 263 276 295
293 293 293 293 294 295 296 297 299 301 303 304 306 308 310 312 315 318 319 320 320 321 320 319 318 318 316 312 303 290 272 252 236 223 217 216 220 225 231 238 245 255 269 290
Height
5804 5802 5797 5794 5793 5791 5786 5783 5777 5775 5773 5774 5771 5765 5760 5756 5752 5749 5746 5742 5736 5731 5725 5718 5712 5704 5696 5688 5680 5671 5662 5653 5643 5632 5621 5609 5597 5583 5569 5554 5539 5523 5506 5489
5794 5793 5787 5783 5785 5782 5778 5773 5769 5765 5763 5763 5756 5752 5748 5745 5741 5738 5735 5730 5724 5719 5713 5707 5700 5693 5686 5678 5670 5661 5652 5643 5633 5622 5611 5600 5588 5575 5561 5547 5532 5517 5500 5484
5781 5780 5776 5775 5778 5772 5768 5765 5760 5755 5754 5750 5745 5741 5737 5733 5730 5726 5722 5717 5712 5706 5701 5695 5689 5682 5675 5668 5659 5651 5642 5633 5623 5612 5601 5590 5579 5567 5554 5540 5525 5510 5495 5478
5768 5766 5762 5770 5765 5762 5757 5755 5750 5744 5741 5737 5733 5729 5725 5721 5718 5713 5709 5704 5699 5694 5689 5683 5677 5670 5664 5657 5648 5640 5631 5622 5612 5602 5591 5581 5570 5558 5546 5533 5519 5505 5490 5474
5755 5750 5748 5755 5755 5748 5743 5743 5739 5730 5727 5724 5720 5717 5714 5709 5704 5700 5695 5691 5686 5681 5676 5671 5665 5658 5652 5645 5636 5628 5619 5611 5601 5591 5581 5571 5561 5550 5538 5526 5513 5499 5485 5469
5742 5736 5735 5744 5740 5734 5729 5728 5725 5717 5713 5709 5706 5704 5701 5696 5691 5687 5682 5677 5673 5668 5663 5658 5652 5645 5639 5632 5624 5615 5607 5599 5590 5580 5571 5561 5551 5541 5530 5518 5506 5493 5479 5465
5729 5722 5722 5731 5726 5719 5715 5714 5708 5703 5699 5695 5692 5689 5686 5682 5678 5673 5668 5664 5659 5655 5650 5645 5638 5632 5625 5619 5611 5602 5595 5587 5578 5569 5560 5551 5542 5533 5522 5511 5499 5487 5474 5461
5715 5710 5713 5715 5709 5705 5700 5695 5692 5688 5684 5679 5676 5674 5670 5666 5662 5658 5653 5649 5645 5640 5636 5631 5624 5617 5611 5605 5596 5588 5581 5574 5566 5558 5549 5541 5532 5523 5514 5503 5492 5480 5468 5455
5699 5699 5700 5696 5692 5689 5683 5678 5674 5671 5669 5664 5660 5658 5655 5651 5647 5643 5638 5634 5629 5624 5620 5615 5608 5602 5596 5590 5582 5574 5567 5560 5553 5546 5538 5530 5522 5514 5505 5495 5485 5474 5462 5450
5683 5685 5685 5681 5676 5672 5667 5661 5657 5654 5651 5648 5643 5641 5638 5635 5631 5627 5623 5618 5613 5608 5604 5599 5593 5587 5581 5574 5567 5560 5553 5547 5540 5533 5526 5519 5512 5504 5496 5487 5478 5468 5457 5445
5669 5671 5668 5666 5662 5656 5651 5646 5641 5638 5635 5631 5627 5624 5621 5618 5615 5611 5607 5603 5598 5592 5588 5583 5577 5572 5566 5559 5553 5546 5540 5534 5528 5521 5515 5508 5502 5495 5487 5479 5471 5461 5451 5440
5654 5655 5649 5646 5644 5640 5635 5630 5626 5623 5619 5616 5611 5607 5605 5603 5599 5596 5592 5587 5582 5577 5572 5568 5562 5557 5551 5545 5539 5533 5527 5521 5515 5509 5504 5498 5491 5485 5478 5471 5463 5455 5445 5435
5640 5638 5634 5631 5629 5625 5621 5616 5613 5609 5605 5602 5598 5594 5591 5588 5585 5581 5577 5572 5568 5563 5558 5553 5548 5543 5537 5531 5526 5520 5515 5509 5504 5498 5492 5487 5481 5476 5469 5463 5456 5448 5440 5430
5629 5625 5622 5619 5616 5613 5608 5604 5600 5596 5593 5589 5586 5582 5578 5575 5572 5568 5564 5559 5554 5550 5545 5539 5534 5529 5523 5518 5513 5508 5503 5497 5492 5487 5481 5476 5472 5466 5461 5455 5449 5442 5434 5425
5617 5614 5610 5607 5604 5601 5597 5593 5589 5585 5581 5578 5574 5570 5567 5563 5560 5556 5551 5546 5542 5537 5532 5527 5522 5516 5510 5505 5500 5495 5490 5485 5480 5476 5471 5466 5461 5457 5452 5447 5441 5435 5428 5420
5606 5603 5599 5596 5593 5590 5586 5582 5578 5575 5571 5567 5564 5560 5556 5552 5548 5543 5539 5533 5528 5524 5518 5513 5508 5502 5497 5492 5487 5482 5477 5473 5468 5464 5459 5455 5451 5448 5443 5438 5434 5428 5422 5415
5594 5592 5589 5586 5582 5579 5575 5572 5568 5564 5561 5557 5553 5549 5544 5540 5536 5531 5526 5520 5515 5509 5503 5497 5492 5487 5481 5476 5471 5467 5463 5459 5456 5452 5448 5445 5442 5438 5434 5430 5426 5421 5416 5410
5582 5580 5577 5575 5572 5568 5565 5561 5557 5553 5549 5545 5541 5536 5532 5527 5522 5517 5512 5506 5500 5494 5487 5480 5474 5469 5463 5458 5453 5450 5446 5443 5441 5439 5436 5433 5431 5428 5425 5422 5419 5415 5410 5404
5570 5568 5565 5562 5559 5556 5552 5549 5545 5541 5537 5533 5529 5524 5519 5513 5508 5502 5496 5490 5483 5477 5471 5463 5456 5450 5444 5439 5435 5431 5429 5426 5425 5424 5423 5421 5420 5418 5416 5414 5411 5408 5404 5398
5557 5555 5551 5548 5545 5542 5539 5535 5531 5528 5524 5519 5515 5510 5505 5499 5493 5487 5481 5474 5465 5458 5451 5444 5437 5430 5424 5418 5414 5412 5410 5409 5409 5409 5409 5409 5409 5408 5407 5405 5403 5401 5397 5393
5543 5540 5538 5535 5532 5529 5525 5521 5517 5514 5510 5505 5500 5496 5491 5485 5478 5471 5464 5458 5449 5439 5431 5423 5415 5408 5402 5397 5394 5392 5391 5391 5392 5394 5395 5397 5398 5398 5398 5397 5395 5394 5391 5387
5529 5527 5524 5521 5518 5516 5511 5507 5503 5500 5496 5491 5486 5480 5475 5470 5463 5456 5448 5439 5431 5422 5413 5404 5395 5388 5381 5378 5375 5373 5372 5373 5375 5378 5381 5384 5386 5388 5388 5388 5388 5387 5385 5382
5516 5513 5510 5507 5503 5501 5497 5493 5489 5485 5481 5476 5471 5466 5460 5454 5447 5440 5434 5424 5414 5405 5395 5386 5377 5370 5364 5360 5357 5355 5355 5356 5359 5363 5367 5370 5374 5377 5379 5380 5380 5380 5378 5376
5501 5498 5495 5492 5488 5485 5483 5479 5475 5471 5467 5462 5456 5450 5445 5440 5433 5425 5416 5408 5399 5389 5380 5371 5363 5355 5349 5344 5341 5339 5339 5341 5344 5349 5353 5358 5363 5367 5369 5371 5372 5373 5372 5371
5486 5483 5480 5477 5474 5471 5468 5465 5462 5458 5454 5449 5444 5437 5430 5424 5419 5412 5404 5395 5385 5376 5367 5358 5350 5342 5336 5332 5329 5327 5327 5329 5333 5337 5342 5348 5354 5358 5361 5364 5365 5366 5366 5365
5471 5468 5466 5462 5459 5457 5454 5451 5449 5445 5441 5437 5432 5425 5419 5413 5406 5399 5391 5383 5374 5365 5357 5349 5341 5334 5328 5324 5322 5320 5320 5321 5324 5329 5334 5340 5346 5350 5354 5357 5359 5360 5361 5360
5457 5454 5451 5449 5445 5442 5440 5437 5435 5432 5428 5423 5420 5415 5409 5402 5396 5388 5380 5372 5364 5356 5348 5341 5334 5328 5323 5319 5317 5315 5315 5316 5319 5323 5328 5334 5340 5344 5348 5351 5354 5355 5356 5356